Regional Weather Roundup
Issued by NWS Lake Charles, LA

Home | Current Version | Previous Version | Text Only | Print | Product List | Glossary On
Versions: 1 2 3 4 5 6 7 8 9 10 11 12 13 14 15 16 17 18 19 20 21 22 23 24 25 26 27
000
ASUS44 KLCH 111210
RWRLCH
REGIONAL WEATHER ROUNDUP
NATIONAL WEATHER SERVICE LAKE CHARLES LA
600 AM CST SUN DEC 11 2016

Note: "fair" indicates few or no clouds below 12,000 feet with no
significant weather and/or obstructions to visibility.


ACROSS SOUTHEAST TEXAS

CITY           SKY/WX    TMP DP  RH WIND       PRES   REMARKS
BEAUMONT       CLOUDY    53  48  83 E7        30.12F
BEAUMONT CITY  PTSUNNY   53  47  83 SE7       30.12S
ORANGE         PTSUNNY   52  45  77 SE9G16    30.15F
JASPER         CLOUDY    51  42  72 E5        30.15F
$$

ACROSS CENTRAL LOUISIANA

CITY           SKY/WX    TMP DP  RH WIND       PRES   REMARKS
LEESVILLE      CLOUDY    46  31  57 SE8       30.15F
FULLERTON      CLOUDY    47  29  49 VRB5      30.14F
ALEXANDRIA INT CLOUDY    46  29  51 SE12      30.17F
ESLER FIELD    CLOUDY    45  29  53 SE5       30.19F
DERIDDER       CLOUDY    47  31  54 E8        30.17F
OAKDALE        CLOUDY    44  33  65 CALM      30.18F
OPELOUSAS      FAIR      44  32  63 E8        30.19F
$$

ACROSS SOUTHWEST AND SOUTH CENTRAL LOUISIANA

CITY           SKY/WX    TMP DP  RH WIND       PRES   REMARKS
SULPHUR        CLOUDY    51  44  78 E9        30.16F
LAKE CHARLES   CLOUDY    49  43  80 E9        30.16F
CHENNAULT INT  PTCLDY    46  39  76 E5        30.17F
CAMERON PHI    PTSUNNY   54  52  94 SE13      30.14F
DEQUINCY       CLOUDY    48  39  72 E6        30.15F
JENNINGS       CLOUDY    46  37  71 SE9       30.18S
LAFAYETTE      CLEAR     47  35  63 SE5       30.21S
NEW IBERIA     CLEAR     45  34  65 SE8       30.21F
ABBEVILLE      FAIR      45  37  76 E7        30.20F
PATTERSON      CLEAR    N/A N/A N/A E5        30.22F
SALT POINT     NOT AVBL
$$

SELECTED SITES ACROSS THE REGION

CITY           SKY/WX    TMP DP  RH WIND       PRES   REMARKS
HOUSTON BUSH   CLOUDY    62  58  86 SE7       30.08S
HOUSTON HOBBY  CLOUDY    65  60  84 SE12      30.07F
GALVESTON      CLEAR     66  62  87 SE13      30.09F
COLLEGE STAT   LGT RAIN  57  54  89 S9        30.05F
CONROE         CLOUDY    56  52  86 SE5       30.09R
HUNTSVILLE     CLOUDY    59  54  83 S12G17    30.05F
LUFKIN         MOCLDY    50  43  77 SE10      30.08F
SHREVEPORT     CLOUDY    50  29  44 S13       30.09F
MONROE         CLOUDY    47  27  45 S7        30.18F
NATCHEZ MS     CLOUDY    45  25  45 S7        30.22R
BATON ROUGE    CLEAR     39  32  76 E6        30.23S
N.O. INTL ARPT PTCLDY    46  41  82 E7        30.25F
SLIDELL        CLEAR     37  26  64 E3        30.26F
$$

MARINE REPORTS

STATION/POSITION TIME  SKY/WX   TEMP    WIND        PRES    VSBY
                                AIR SEA DIR/SP/G
                 (UTC)          (F)     (DEG/KT/KT) (MB)    (MI)
BUOY 30 S HIGH I 1150            68 65  160/ 14/ 16 1019.2F
WVE H/P(F/S)=  5/ 6

SEA RIM ST PARK  1200            61     140/  8/ 10 1020.3F
PORT ARTHUR      1148               55   80/  5/  7 1020.1F
SABINE PASS N    1148            60 57  140/ 10/ 11 1021.0F
TEXAS POINT      NOT AVBL
CALCASIEU PASS   1148            57 55  140/ 13/ 16   N/A
LK CHARLES BEACH 1148            49 53              1021.6F
MARSH ISLAND     1100            53                   N/A
FRESH WATER LOCK 1148            51 51   90/  8/ 13 1023.0F
AMERADA PASS     1148            47 53   80/  5/  7 1023.0F
$$




USA.gov is the U.S. government's official web portal to all federal, state and local government web resources and services.